User: anonymous   Login
Location: Unspecified
(0.0000°N, 0.0000°E)
Time: 21:28:12
(UTC+00:00)
Language:

STARLINK-35682 - Orbit

View from above orbital plane
View from above orbital plane
View from above satellite
View from above satellite

Ground track
Ground track

The orbit is defined by the following mean orbital elements,

1 66467U          26145.53386771 +.00000000 +00000-0 +68743-3 0 00001
2 66467  43.0025 222.6381 0001852 262.5756  97.4885 15.27588462    07
Epoch (UTC): 25 May 2026 12:48:46
Eccentricity: 0.0001852
inclination: 43.0025°
perigee height: 482 km
apogee height: 484 km
right ascension of ascending node: 222.6381°
argument of perigee: 262.5756°
revolutions per day: 15.27588462
mean anomaly at epoch: 97.4885°

The dashed part of the orbit path shows where the satellite is in the earth's shadow,  

DLR